When you browse on this site, cookies collect data to enhance your experience and personalize the content and advertising you see.
Visit our Privacy Policy to learn more. By continuing to use the site, you agree to this use of cookies and data.
  • In Hungary
  • List of Countries
  • For 7 days
  • Water Temperature
  • Weather Map
  • News
  • Weather Widgets
  • user-avatar
    Login

    Hourly Weather Chebachiy

    Today, 14 October, Monday

    Time Temperature Precipitation Wind Pressure Humidity
    00:00 +12°C° 0 mm 3 mps 767 mmHg 71%
    01:00 +12°C° 0 mm 3 mps 767 mmHg 74%
    02:00 +12°C° 0 mm 3 mps 767 mmHg 77%
    03:00 +11°C° 0 mm 3 mps 767 mmHg 82%
    04:00 +12°C° 0 mm 2 mps 767 mmHg 83%
    05:00 +12°C° 0 mm 2 mps 767 mmHg 85%
    06:00 +12°C° 0 mm 2 mps 767 mmHg 86%
    07:00 +14°C° 0 mm 2 mps 767 mmHg 80%
    08:00 +15°C° 0 mm 2 mps 768 mmHg 74%
    09:00 +17°C° 0 mm 2 mps 768 mmHg 66%
    10:00 +18°C° 0 mm 2 mps 768 mmHg 60%
    11:00 +20°C° 0 mm 3 mps 768 mmHg 54%
    12:00 +22°C° 0 mm 3 mps 768 mmHg 48%
    13:00 +22°C° 0 mm 3 mps 767 mmHg 46%
    14:00 +24°C° 0 mm 3 mps 767 mmHg 44%
    15:00 +25°C° 0 mm 3 mps 767 mmHg 42%
    16:00 +23°C° 0 mm 2 mps 767 mmHg 47%
    17:00 +20°C° 0 mm 2 mps 767 mmHg 52%
    18:00 +20°C° 0 mm 1 mps 766 mmHg 57%
    19:00 +19°C° 0 mm 1 mps 766 mmHg 58%
    20:00 +19°C° 0 mm 1 mps 767 mmHg 60%
    21:00 +18°C° 0 mm 1 mps 767 mmHg 62%
    22:00 +16°C° 0 mm 1 mps 766 mmHg 64%
    23:00 +16°C° 0 mm 1 mps 766 mmHg 66%

    Tomorrow, 15 October, Tuesday

    Time Temperature Precipitation Wind Pressure Humidity
    00:00 +15°C° 0 mm 1 mps 766 mmHg 67%
    01:00 +15°C° 0 mm 1 mps 766 mmHg 68%
    02:00 +15°C° 0 mm 1 mps 766 mmHg 69%
    03:00 +14°C° 0 mm 1 mps 766 mmHg 69%
    04:00 +14°C° 0 mm 1 mps 765 mmHg 70%
    05:00 +14°C° 0 mm 1 mps 765 mmHg 70%
    06:00 +13°C° 0 mm 1 mps 765 mmHg 71%
    07:00 +15°C° 0 mm 1 mps 765 mmHg 65%
    08:00 +16°C° 0 mm 1 mps 765 mmHg 60%
    09:00 +19°C° 0 mm 1 mps 765 mmHg 55%
    10:00 +20°C° 0 mm 1 mps 765 mmHg 49%
    11:00 +22°C° 0 mm 1 mps 765 mmHg 43%
    12:00 +24°C° 0 mm 1 mps 764 mmHg 38%
    13:00 +24°C° 0 mm 1 mps 764 mmHg 35%
    14:00 +25°C° 0 mm 2 mps 764 mmHg 33%
    15:00 +25°C° 0 mm 2 mps 764 mmHg 31%
    16:00 +24°C° 0 mm 2 mps 763 mmHg 35%
    17:00 +21°C° 0 mm 2 mps 763 mmHg 39%
    18:00 +19°C° 0 mm 2 mps 763 mmHg 43%
    19:00 +19°C° 0 mm 1 mps 763 mmHg 44%
    20:00 +19°C° 0 mm 1 mps 763 mmHg 46%
    21:00 +18°C° 0 mm 1 mps 764 mmHg 47%
    22:00 +18°C° 0 mm 1 mps 764 mmHg 49%
    23:00 +16°C° 0 mm 1 mps 764 mmHg 51%

    Day after tomorrow, 16 October, Wednesday

    Time Temperature Precipitation Wind Pressure Humidity
    00:00 +16°C° 0 mm 1 mps 763 mmHg 53%
    01:00 +15°C° 0 mm 1 mps 764 mmHg 55%
    02:00 +15°C° 0 mm 1 mps 764 mmHg 58%
    03:00 +15°C° 0 mm 2 mps 764 mmHg 61%
    04:00 +14°C° 0 mm 2 mps 764 mmHg 65%
    05:00 +14°C° 0 mm 2 mps 764 mmHg 68%
    06:00 +13°C° 0 mm 2 mps 764 mmHg 71%
    07:00 +15°C° 0 mm 2 mps 764 mmHg 68%
    08:00 +16°C° 0 mm 3 mps 765 mmHg 65%
    09:00 +17°C° 0 mm 3 mps 765 mmHg 62%
    10:00 +19°C° 0 mm 3 mps 765 mmHg 58%
    11:00 +20°C° 0 mm 4 mps 765 mmHg 53%
    12:00 +22°C° 0 mm 4 mps 765 mmHg 49%
    13:00 +22°C° 0 mm 4 mps 765 mmHg 49%
    14:00 +22°C° 0 mm 4 mps 765 mmHg 50%
    15:00 +22°C° 0 mm 5 mps 765 mmHg 51%
    16:00 +21°C° 0 mm 4 mps 765 mmHg 57%
    17:00 +19°C° 0 mm 4 mps 765 mmHg 62%
    18:00 +18°C° 0 mm 4 mps 765 mmHg 67%
    19:00 +17°C° 0 mm 4 mps 765 mmHg 69%
    20:00 +17°C° 0 mm 4 mps 765 mmHg 71%
    21:00 +15°C° 0 mm 4 mps 766 mmHg 72%
    22:00 +15°C° 0 mm 4 mps 766 mmHg 74%
    23:00 +14°C° 0 mm 4 mps 766 mmHg 75%

    17 October, Thursday

    Time Temperature Precipitation Wind Pressure Humidity
    00:00 +14°C° 0 mm 5 mps 766 mmHg 77%
    01:00 +13°C° 0 mm 5 mps 766 mmHg 78%
    02:00 +13°C° 0 mm 5 mps 766 mmHg 78%
    03:00 +12°C° 0 mm 4 mps 766 mmHg 79%
    04:00 +12°C° 0 mm 4 mps 766 mmHg 79%
    05:00 +11°C° 0 mm 4 mps 766 mmHg 78%
    06:00 +11°C° 0 mm 4 mps 766 mmHg 78%
    07:00 +12°C° 0 mm 4 mps 766 mmHg 73%
    08:00 +13°C° 0 mm 4 mps 766 mmHg 68%
    09:00 +14°C° 0 mm 5 mps 766 mmHg 63%
    10:00 +15°C° 0 mm 5 mps 766 mmHg 58%
    11:00 +18°C° 0 mm 4 mps 766 mmHg 54%
    12:00 +20°C° 0 mm 4 mps 765 mmHg 49%
    13:00 +21°C° 0 mm 4 mps 765 mmHg 47%
    14:00 +21°C° 0 mm 4 mps 765 mmHg 46%
    15:00 +22°C° 0 mm 4 mps 764 mmHg 44%
    16:00 +20°C° 0 mm 4 mps 764 mmHg 50%
    17:00 +19°C° 0 mm 4 mps 764 mmHg 55%
    18:00 +17°C° 0 mm 3 mps 764 mmHg 61%
    19:00 +17°C° 0 mm 3 mps 764 mmHg 63%
    20:00 +16°C° 0 mm 3 mps 764 mmHg 66%
    21:00 +14°C° 0 mm 3 mps 764 mmHg 68%
    22:00 +13°C° 0 mm 3 mps 763 mmHg 71%
    23:00 +13°C° 0 mm 3 mps 763 mmHg 73%

    18 October, Friday

    Time Temperature Precipitation Wind Pressure Humidity
    00:00 +12°C° 0 mm 3 mps 763 mmHg 75%
    01:00 +13°C° 0 mm 2 mps 763 mmHg 77%
    02:00 +13°C° 0 mm 2 mps 763 mmHg 79%
    03:00 +12°C° 0 mm 2 mps 763 mmHg 81%
    04:00 +12°C° 0 mm 2 mps 763 mmHg 82%
    05:00 +12°C° 0 mm 2 mps 763 mmHg 83%
    06:00 +11°C° 0 mm 1 mps 763 mmHg 85%
    07:00 +13°C° 0 mm 2 mps 762 mmHg 79%
    08:00 +14°C° 0 mm 2 mps 762 mmHg 72%
    09:00 +15°C° 0 mm 2 mps 762 mmHg 66%
    10:00 +17°C° 0 mm 2 mps 762 mmHg 59%
    11:00 +19°C° 0 mm 2 mps 762 mmHg 52%
    12:00 +21°C° 0 mm 2 mps 762 mmHg 46%
    13:00 +21°C° 0 mm 2 mps 762 mmHg 43%
    14:00 +23°C° 0 mm 2 mps 762 mmHg 40%
    15:00 +24°C° 0 mm 2 mps 761 mmHg 37%
    16:00 +21°C° 0 mm 2 mps 762 mmHg 42%
    17:00 +19°C° 0 mm 2 mps 762 mmHg 47%
    18:00 +18°C° 0 mm 2 mps 762 mmHg 51%
    19:00 +17°C° 0 mm 2 mps 762 mmHg 54%
    20:00 +16°C° 0 mm 2 mps 762 mmHg 56%
    21:00 +16°C° 0 mm 1 mps 762 mmHg 58%
    22:00 +15°C° 0 mm 1 mps 762 mmHg 60%
    23:00 +15°C° 0 mm 1 mps 763 mmHg 61%

    19 October, Saturday

    Time Temperature Precipitation Wind Pressure Humidity
    00:00 +15°C° 0 mm 1 mps 763 mmHg 63%
    01:00 +14°C° 0 mm 1 mps 763 mmHg 65%
    02:00 +14°C° 0 mm 2 mps 763 mmHg 67%
    03:00 +13°C° 0 mm 2 mps 763 mmHg 69%
    04:00 +13°C° 0 mm 2 mps 763 mmHg 71%
    05:00 +13°C° 0 mm 2 mps 764 mmHg 73%
    06:00 +12°C° 0 mm 2 mps 764 mmHg 75%
    07:00 +12°C° 0 mm 3 mps 764 mmHg 72%
    08:00 +14°C° 0 mm 3 mps 764 mmHg 69%
    09:00 +15°C° 0 mm 4 mps 764 mmHg 67%
    10:00 +17°C° 0 mm 4 mps 765 mmHg 61%
    11:00 +19°C° 0 mm 4 mps 765 mmHg 56%
    12:00 +20°C° 0 mm 5 mps 765 mmHg 51%
    13:00 +20°C° 0 mm 5 mps 765 mmHg 52%
    14:00 +20°C° 0 mm 5 mps 764 mmHg 53%
    15:00 +20°C° 0 mm 5 mps 764 mmHg 54%
    16:00 +17°C° 0 mm 5 mps 764 mmHg 59%
    17:00 +16°C° 0 mm 5 mps 764 mmHg 65%
    18:00 +14°C° 0 mm 5 mps 765 mmHg 71%
    19:00 +13°C° 0 mm 5 mps 765 mmHg 71%
    20:00 +13°C° 0 mm 5 mps 765 mmHg 71%
    21:00 +12°C° 0 mm 5 mps 765 mmHg 70%
    22:00 +12°C° 0 mm 5 mps 765 mmHg 70%
    23:00 +10°C° 0 mm 5 mps 766 mmHg 70%
    Show more